Flight Track Log - Related Links

Times and Time Zones

All times are in EDT time to prevent confusion due to time zone crossing. See the N830QS flight status page for this flight to view local times or setup timezone preferences in your user account.

Time Position Orientation Groundspeed Altitude Reporting Facility
EDT Latitude Longitude Course Direction KTS MPH feet Rate Location/Type
Tue 12:43:30 AM 38.1883 -122.3069 113° Southeast 230 265 1,600  Level Oakland Center
Tue 12:44:31 AM 38.1622 -122.3758 244° Southwest 218 251 5,100 3,639 Climbing Oakland Center
Tue 12:45:32 AM 38.1003 -122.4097 203° Southwest 241 277 9,000 3,707 Climbing Oakland Center
Tue 12:46:34 AM 38.0269 -122.3947 171° South 288 331 12,700 3,317 Climbing Oakland Center
Tue 12:47:00 AM 37.7797 -122.3619 120° Southeast  Level FlightAware Approximate
Tue 12:47:35 AM 37.9519 -122.3453 153° Southeast 303 349 15,800  Level Oakland Center
Tue 12:48:00 AM 37.7309 -122.2592 113° Southeast  Level FlightAware Approximate
Tue 12:48:36 AM 37.8803 -122.2683 140° Southeast 333 383 17,900  Level Oakland Center
Tue 12:49:37 AM 37.8019 -122.1861 140° Southeast 364 419 19,800 1,918 Climbing Oakland Center
Tue 12:50:38 AM 37.7203 -122.0992 140° Southeast 381 438 21,800 1,805 Climbing Oakland Center
Tue 12:51:40 AM 37.6400 -122.0142 140° Southeast 380 437 23,500 1,610 Climbing Oakland Center
Tue 12:52:41 AM 37.5575 -121.9275 140° Southeast 384 442 25,100 1,525 Climbing Oakland Center
Tue 12:53:42 AM 37.4719 -121.8369 140° Southeast 398 458 26,600 1,574 Climbing Oakland Center
Tue 12:54:43 AM 37.3853 -121.7464 140° Southeast 404 465 28,300 1,770 Climbing Oakland Center
Tue 12:55:44 AM 37.2972 -121.6544 140° Southeast 400 460 30,200 1,820 Climbing Oakland Center
Tue 12:56:45 AM 37.2122 -121.5661 140° Southeast 399 459 32,000 1,721 Climbing Oakland Center
Tue 12:57:46 AM 37.1283 -121.4786 140° Southeast 394 453 33,700 1,475 Climbing Oakland Center
Tue 12:58:47 AM 37.0289 -121.3750 140° Southeast 401 461 35,000 634 Climbing Oakland Center
Tue 12:59:49 AM 36.9392 -121.2803 140° Southeast 424 488 35,000  Level Oakland Center
Tue 01:00:50 AM 36.8411 -121.1797 141° Southeast 454 522 35,000  Level Oakland Center
Tue 01:01:51 AM 36.7411 -121.0761 140° Southeast 462 532 35,000  Level Oakland Center
Tue 01:02:52 AM 36.6403 -120.9719 140° Southeast 470 541 35,000  Level Oakland Center
Tue 01:03:53 AM 36.5389 -120.8706 141° Southeast 469 540 35,000  Level Oakland Center
Tue 01:04:54 AM 36.4378 -120.7681 141° Southeast 470 541 35,000  Level Oakland Center
Tue 01:05:55 AM 36.3369 -120.6664 141° Southeast 469 540 35,000  Level Oakland Center
Tue 01:06:56 AM 36.2361 -120.5653 141° Southeast 467 537 35,000  Level Oakland Center
Tue 01:07:57 AM 36.1358 -120.4633 141° Southeast 468 539 35,000  Level Oakland Center
Tue 01:08:58 AM 36.0139 -120.3417 141° Southeast 468 539 35,000  Level Oakland Center
Tue 01:10:00 AM 35.9122 -120.2406 141° Southeast 469 540 35,000  Level Oakland Center
Tue 01:11:01 AM 35.8103 -120.1386 141° Southeast 469 540 35,000  Level Oakland Center
Tue 01:12:02 AM 35.7072 -120.0381 142° Southeast 470 541 35,000  Level Oakland Center
Tue 01:13:03 AM 35.6036 -119.9406 143° Southeast 468 539 35,000  Level Oakland Center
Tue 01:13:47 AM 35.5406 -119.8872 145° Southeast 463 533 35,000  Level Los Angeles Center
Tue 01:14:48 AM 35.4358 -119.7958 145° Southeast 460 529 35,000  Level Los Angeles Center
Tue 01:15:50 AM 35.3119 -119.6886 145° Southeast 452 520 35,000 -293 Level Los Angeles Center
Tue 01:16:51 AM 35.2106 -119.6019 145° Southeast 445 512 34,400 -1,024 Descending Los Angeles Center
Tue 01:17:53 AM 35.1089 -119.5161 145° Southeast 444 511 32,900 -1,610 Descending Los Angeles Center
Tue 01:18:54 AM 35.0103 -119.4319 145° Southeast 435 501 31,100 -2,000 Descending Los Angeles Center
Tue 01:19:56 AM 34.9108 -119.3461 145° Southeast 436 502 28,800 -2,226 Descending Los Angeles Center
Tue 01:20:58 AM 34.8111 -119.2611 145° Southeast 435 501 26,500 -2,293 Descending Los Angeles Center
Tue 01:21:59 AM 34.7111 -119.1769 145° Southeast 437 503 24,100 -2,341 Descending Los Angeles Center
Tue 01:23:01 AM 34.6036 -119.0903 146° Southeast 427 491 21,700 -2,244 Descending Los Angeles Center
Tue 01:24:02 AM 34.5100 -119.0106 145° Southeast 410 472 19,500 -2,146 Descending Los Angeles Center
Tue 01:25:04 AM 34.4175 -118.9344 146° Southeast 400 460 17,300 -2,032 Descending Los Angeles Center
Tue 01:26:06 AM 34.3314 -118.8739 150° Southeast 351 404 15,300 -1,756 Descending Los Angeles Center
Tue 01:27:07 AM 34.2442 -118.8592 172° South 318 366 13,700 -1,623 Descending Los Angeles Center
Tue 01:28:08 AM 34.1436 -118.8589 180° South 300 345 12,000 -1,220 Descending Los Angeles Center
Tue 01:29:10 AM 34.0714 -118.8411 168° South 284 327 11,200 -976 Descending Los Angeles Center
Tue 01:30:11 AM 34.0442 -118.7469 109° East 293 337 10,000 -585 Descending Los Angeles Center
Tue 01:31:13 AM 34.0325 -118.6508 98° East 290 334 10,000 -585 Level Los Angeles Center
Tue 01:32:14 AM 34.0214 -118.5544 98° East 291 335 8,800 -1,366 Descending Los Angeles Center
Tue 01:33:16 AM 34.0114 -118.4564 97° East 274 315 7,200 -878 Descending Los Angeles Center
Tue 01:34:17 AM 34.0186 -118.3911 82° East 238 274 7,000 -488 Descending Los Angeles Center
Tue 01:35:19 AM 34.0231 -118.3192 86° East 222 255 6,200 -976 Descending Los Angeles Center
Tue 01:36:20 AM 34.0267 -118.2625 86° East 215 247 5,000 -1,377 Descending Los Angeles Center
Tue 01:37:21 AM 34.0331 -118.1817 85° East 204 235 3,400 -1,171 Descending Los Angeles Center
Tue 01:38:23 AM 34.0392 -118.1056 84° East 194 223 2,600 -390 Descending Los Angeles Center
Tue 01:39:24 AM 34.0022 -118.0797 150° Southeast 196 226 2,600  Level Los Angeles Center
Tue 01:40:26 AM 33.9794 -118.1311 242° Southwest 182 209 2,600  Level Los Angeles Center
Tue 01:41:27 AM 33.9744 -118.1894 264° West 176 203 2,600  Level Los Angeles Center
Tue 01:42:29 AM 33.9683 -118.2492 263° West 180 207 2,600 -390 Level Los Angeles Center
Tue 01:43:30 AM 33.9628 -118.3061 263° West 178 205 1,800 -780 Descending Los Angeles Center
Tue 01:44:32 AM 33.9581 -118.3489 262° West 152 175 1,000 -683 Descending Los Angeles Center
Tue 01:45:33 AM 33.9547 -118.3883 264° West 132 152 400 -590 Descending Los Angeles Center
Tue 01:47:00 AM 33.9333 -118.4000 248° West  Level FlightAware Approximate
Tue 01:54:00 AM 33.9425 -118.4081 248° West  Level Estimated

Login

Don't have an account? Register now (free) for customized features, flight alerts, and more!